(60404) = 1995 SW41 = 2000 BR37

Discovered at Kitt Peak on 2000-01-26 by Spacewatch.

Orbit

Orbit type: Main Belt

Note: WebGL enabled browser required.

epoch2024-03-31.0
epoch JD2460400.5
perihelion date2023-07-24.63524
perihelion JD2460150.13524
argument of perihelion (°)292.27623
ascending node (°)118.80426
inclination (°)1.46042
eccentricity0.1277221
perihelion distance (AU)1.9856500
Tisserand w.r.t. Jupiter3.6
ΔV w.r.t. Earth (km/sec)8.7
semimajor axis (AU)2.2763960
mean anomaly (°)71.84645
mean daily motion (°/day)0.28696710
aphelion distance (AU)2.567
period (years)3.43
P-vector [x]0.62796465
P-vector [y]0.72307631
P-vector [z]0.28778646
Q-vector [x]-0.77792136
Q-vector [y]0.57259939
Q-vector [z]0.25878235
absolute magnitude16.86
phase slope0.15
uncertainty0
referenceMPEC 2024-C145
observations used527
oppositions16
arc length (days)10430
first opposition used1995
last opposition used2024
residual rms (arc-secs)0.80
perturbers coarse indicatorM-v
perturbers precise indicator003Ek
first observation date used1995-07-24.0
last observation date used2024-02-12.0
computer nameMPCLINUX
JD of orbit computation2456937.439210
perihelion JD uncertainty (days)5.7606E-05
argument of perihelion uncertainty (°)1.4788E-04
ascending node uncertainty (°)1.4685E-04
inclination uncertainty (°)3.5525E-06
eccentricity uncertainty 3.0819E-08
perihelion distance uncertainty (AU)7.0073E-08
Minimum Orbit Intersection Distances (in AU)
for orbit epoch: 2460400.5, reference: E2024-GB3
Mercury1.66925
Venus1.26308
Earth0.99705
Mars0.46948
Jupiter2.75635
Saturn6.95515
Uranus16.0203
Neptune27.807

Observations

533 total observations over interval: 1995 07 24.43976 – 2024 02 12.281759
These data are available for download (format description).

Date (UT) J2000 RA J2000 Dec Magn Location Ref
1995 07 24.43976 00 42 50.80 +03 03 21.7 20.7 V 691 – Steward Observatory, Kitt Peak-Spacewatch MPS 17366
1995 07 24.45067 00 42 51.29 +03 03 24.4   691 – Steward Observatory, Kitt Peak-Spacewatch MPS 17366
1995 07 24.46160 00 42 51.78 +03 03 26.9   691 – Steward Observatory, Kitt Peak-Spacewatch MPS 17366
1995 09 20.38383 00 42 20.45 +01 47 12.5 19.5 V 691 – Steward Observatory, Kitt Peak-Spacewatch MPS 32265
1995 09 20.40487 00 42 19.37 +01 47 04.9 19.4 V 691 – Steward Observatory, Kitt Peak-Spacewatch MPS 32265
1995 09 20.42625 00 42 18.28 +01 46 56.9 19.4 V 691 – Steward Observatory, Kitt Peak-Spacewatch MPS 32265
1995 09 25.36940 00 38 08.03 +01 16 18.5   691 – Steward Observatory, Kitt Peak-Spacewatch MPC 25862
1995 09 25.39029 00 38 06.87 +01 16 10.6 18.9 V 691 – Steward Observatory, Kitt Peak-Spacewatch MPC 25862
1995 09 25.41115 00 38 05.71 +01 16 02.6   691 – Steward Observatory, Kitt Peak-Spacewatch MPC 25862
1995 09 30.29917 00 33 42.29 +00 44 55.4   691 – Steward Observatory, Kitt Peak-Spacewatch MPC 25862
1995 09 30.32135 00 33 40.96 +00 44 46.3 19.0 V 691 – Steward Observatory, Kitt Peak-Spacewatch MPC 25862
1995 09 30.34248 00 33 39.74 +00 44 38.4   691 – Steward Observatory, Kitt Peak-Spacewatch MPC 25862
1997 03 07.42754 12 32 05.40 -01 11 24.7 21.0 V 691 – Steward Observatory, Kitt Peak-Spacewatch MPS 79642
1997 03 07.45351 12 32 04.11 -01 11 15.6 21.2 V 691 – Steward Observatory, Kitt Peak-Spacewatch MPS 79642
1997 03 07.47460 12 32 03.02 -01 11 08.2 21.8 V 691 – Steward Observatory, Kitt Peak-Spacewatch MPS 79642
2000 01 06.31323 08 36 26.04 +18 30 25.0 19.0   704 – Lincoln Laboratory ETS, New Mexico MPS 17641
2000 01 06.34262 08 36 24.25 +18 30 31.8 18.8   704 – Lincoln Laboratory ETS, New Mexico MPS 17641
2000 01 06.35725 08 36 23.50 +18 30 35.7 18.8   704 – Lincoln Laboratory ETS, New Mexico MPS 17641
2000 01 26.21401 08 15 36.04 +20 00 36.0 18.4 V 691 – Steward Observatory, Kitt Peak-Spacewatch MPS 16818
2000 01 26.24440 08 15 33.98 +20 00 44.0 18.4 V 691 – Steward Observatory, Kitt Peak-Spacewatch MPS 16818
2000 01 26.27260 08 15 32.05 +20 00 51.7 18.3 V 691 – Steward Observatory, Kitt Peak-Spacewatch MPS 16818
2000 02 02.19015 08 08 13.39 +20 29 40.0 18.6 V 691 – Steward Observatory, Kitt Peak-Spacewatch MPS 16818
2000 02 02.21239 08 08 12.00 +20 29 45.1 18.5 V 691 – Steward Observatory, Kitt Peak-Spacewatch MPS 16818
2000 02 02.23474 08 08 10.60 +20 29 49.8 19.3 V 691 – Steward Observatory, Kitt Peak-Spacewatch MPS 16818
2000 02 04.17520 08 06 15.55 +20 37 12.9 19.1 V 691 – Steward Observatory, Kitt Peak-Spacewatch MPS 17641
2000 02 04.19748 08 06 14.20 +20 37 17.9 19.2 V 691 – Steward Observatory, Kitt Peak-Spacewatch MPS 17641
2000 02 04.22030 08 06 12.67 +20 37 22.2 18.4 V 691 – Steward Observatory, Kitt Peak-Spacewatch MPS 17641
2000 02 14.22930 07 57 46.46 +21 09 15.6 19.6 V 691 – Steward Observatory, Kitt Peak-Spacewatch MPS 17641
2000 02 14.23923 07 57 46.02 +21 09 17.1 19.5 V 691 – Steward Observatory, Kitt Peak-Spacewatch MPS 17641
2000 02 14.24923 07 57 45.58 +21 09 18.8 19.3 V 691 – Steward Observatory, Kitt Peak-Spacewatch MPS 17641
2002 10 02.40863 02 33 58.35 +12 15 49.2 19.3   704 – Lincoln Laboratory ETS, New Mexico MPS 67589
2002 10 02.42425 02 33 57.90 +12 15 46.7 19.8   704 – Lincoln Laboratory ETS, New Mexico MPS 67589
2002 10 02.43991 02 33 57.36 +12 15 44.0 19.8   704 – Lincoln Laboratory ETS, New Mexico MPS 67589
2002 10 02.45546 02 33 56.95 +12 15 40.3 19.5   704 – Lincoln Laboratory ETS, New Mexico MPS 67589
2002 10 09.32995 02 30 02.07 +11 50 50.3 19.1   704 – Lincoln Laboratory ETS, New Mexico MPS 62843
2002 10 09.34552 02 30 01.46 +11 50 46.6 19.6   704 – Lincoln Laboratory ETS, New Mexico MPS 62843
2002 10 09.36131 02 30 00.77 +11 50 42.8 19.1   704 – Lincoln Laboratory ETS, New Mexico MPS 62843
2002 10 09.37712 02 30 00.10 +11 50 38.9 19.5   704 – Lincoln Laboratory ETS, New Mexico MPS 62843
2002 10 09.39291 02 29 59.40 +11 50 35.8 19.3   704 – Lincoln Laboratory ETS, New Mexico MPS 62843
2002 10 11.32148 02 28 38.52 +11 42 36.2 18.7   704 – Lincoln Laboratory ETS, New Mexico MPS 62843
2002 10 11.33726 02 28 37.79 +11 42 32.2 19.4   704 – Lincoln Laboratory ETS, New Mexico MPS 62844
2002 10 11.35324 02 28 37.07 +11 42 27.6 19.4   704 – Lincoln Laboratory ETS, New Mexico MPS 62844
2002 10 11.36914 02 28 36.32 +11 42 24.1 19.6   704 – Lincoln Laboratory ETS, New Mexico MPS 62844
2002 10 11.38492 02 28 35.57 +11 42 19.4 19.2   704 – Lincoln Laboratory ETS, New Mexico MPS 62844
2002 10 30.31263 02 11 42.17 +10 12 05.8 18.6   644 – Palomar Mountain/NEAT MPS 65532
2002 10 30.33701 02 11 40.66 +10 11 58.6 18.7   644 – Palomar Mountain/NEAT MPS 65532
2002 10 30.37661 02 11 38.25 +10 11 47.1 19.1   644 – Palomar Mountain/NEAT MPS 65532
2002 10 31.52984 02 10 31.27 +10 06 17.5 19.2   608 – Haleakala-AMOS MPS 65532
2002 10 31.54022 02 10 30.66 +10 06 14.6 19.0   608 – Haleakala-AMOS MPS 65532
2002 10 31.55063 02 10 30.03 +10 06 11.7 19.0   608 – Haleakala-AMOS MPS 65532
2002 11 06.25385 02 05 08.07 +09 40 10.0 19.4   704 – Lincoln Laboratory ETS, New Mexico MPS 65532
2002 11 06.27051 02 05 07.16 +09 40 04.6 20.2   704 – Lincoln Laboratory ETS, New Mexico MPS 65532
2002 11 06.30387 02 05 05.17 +09 39 56.2 19.7   704 – Lincoln Laboratory ETS, New Mexico MPS 65532
2002 11 10.22538 02 01 38.79 +09 24 03.4 18.9   704 – Lincoln Laboratory ETS, New Mexico MPS 65532
2002 11 10.24112 02 01 37.93 +09 23 59.7 19.0   704 – Lincoln Laboratory ETS, New Mexico MPS 65532
2002 11 10.25687 02 01 37.15 +09 23 56.7 19.3   704 – Lincoln Laboratory ETS, New Mexico MPS 65532
2002 11 10.27262 02 01 36.25 +09 23 51.0 19.2   704 – Lincoln Laboratory ETS, New Mexico MPS 65532
2002 11 22.21070 01 53 19.77 +08 50 16.2 18.8   644 – Palomar Mountain/NEAT MPS 67589
2002 11 22.23171 01 53 19.05 +08 50 14.1 18.6   644 – Palomar Mountain/NEAT MPS 67589
2002 11 22.25284 01 53 18.24 +08 50 11.3 18.2   644 – Palomar Mountain/NEAT MPS 67589
2004 03 16.41736 13 31 12.76 -07 08 23.4 21.0 V 691 – Steward Observatory, Kitt Peak-Spacewatch MPS 101874
2004 03 16.44520 13 31 11.54 -07 08 15.2 21.1 V 691 – Steward Observatory, Kitt Peak-Spacewatch MPS 101874
2004 03 16.47191 13 31 10.40 -07 08 07.5 21.3 V 691 – Steward Observatory, Kitt Peak-Spacewatch MPS 101874
2004 03 25.33954 13 24 10.37 -06 21 09.1 20.0 R 699 – Lowell Observatory-LONEOS MPS 103734
2004 03 25.35987 13 24 09.29 -06 21 01.4   699 – Lowell Observatory-LONEOS MPS 103734
2004 03 25.38008 13 24 08.23 -06 20 53.7   699 – Lowell Observatory-LONEOS MPS 103734
2004 03 25.40041 13 24 07.14 -06 20 47.0   699 – Lowell Observatory-LONEOS MPS 103734
2004 04 13.21544 13 06 18.42 -04 28 04.4 20.5 V 691 – Steward Observatory, Kitt Peak-Spacewatch MPS 104788
2004 04 13.24394 13 06 16.73 -04 27 54.6 20.3 V 691 – Steward Observatory, Kitt Peak-Spacewatch MPS 104788
2004 04 13.27210 13 06 15.07 -04 27 44.9 20.6 V 691 – Steward Observatory, Kitt Peak-Spacewatch MPS 104788
2005 06 29.43132 21 34 50.72 -14 36 00.2 20.1   644 – Palomar Mountain/NEAT MPS 137295
2005 06 29.44153 21 34 50.57 -14 36 01.2 19.8   644 – Palomar Mountain/NEAT MPS 137295
2005 06 29.45194 21 34 50.44 -14 36 02.0 19.8   644 – Palomar Mountain/NEAT MPS 137295
2005 07 04.38541 21 33 36.21 -14 45 57.1 19.7   644 – Palomar Mountain/NEAT MPS 137808
2005 07 04.40371 21 33 35.82 -14 45 59.6 19.8   644 – Palomar Mountain/NEAT MPS 137808
2005 07 04.41882 21 33 35.50 -14 46 02.0 19.8   644 – Palomar Mountain/NEAT MPS 137808
2005 07 11.40912 21 30 35.46 -15 06 21.4 20.1 V 691 – Steward Observatory, Kitt Peak-Spacewatch MPS 138212
2005 07 11.42648 21 30 34.87 -15 06 24.9 20.0 V 691 – Steward Observatory, Kitt Peak-Spacewatch MPS 138212
2005 07 11.44727 21 30 34.15 -15 06 29.0 20.1 V 691 – Steward Observatory, Kitt Peak-Spacewatch MPS 138212
2005 07 12.39541 21 30 03.31 -15 09 47.1 20.1 V G96 – Mt. Lemmon Survey MPS 138212
2005 07 12.40341 21 30 02.98 -15 09 48.8 20.0 V G96 – Mt. Lemmon Survey MPS 138212
2005 07 12.41144 21 30 02.73 -15 09 50.8 20.3 V G96 – Mt. Lemmon Survey MPS 138212
2005 07 12.41947 21 30 02.41 -15 09 52.1 19.9 V G96 – Mt. Lemmon Survey MPS 138212
